Weather History for KEZM - November, 2011

Change the Weather History Date:

Saturday, November 12, 2011

  Actual Average (KMCN) Record (KMCN)
Temperature  
Mean Temperature 46 °F 57 °F  
Max Temperature 68 °F 70 °F 83 °F (1989)
Min Temperature 24 °F 44 °F 27 °F (1987)
Degree Days  
Heating Degree Days 19 9  
Month to date heating degree days 89  
Since 1 July heating degree days 192  
Cooling Degree Days 0 1  
Month to date cooling degree days 12  
Year to date cooling degree days 2156  
Moisture  
Dew Point 26 °F    
Average Humidity 62    
Maximum Humidity 100    
Minimum Humidity 13    
Precipitation  
Precipitation 0.00 in 0.11 in 2.02 in (1930)
Month to date precipitation 1.18  
Year to date precipitation 39.50  
Snow  
Snow - 0.00 in 0.00 in (2002)
Month to date snowfall 0.0  
Since 1 July snowfall 0.0  
Since 1 September snowfall 0.0  
Snow Depth -    
Sea Level Pressure  
Sea Level Pressure 30.31 in    
Wind  
Wind Speed 0 mph ()    
Max Wind Speed 6 mph    
Max Gust Speed -    
Visibility 10.0 miles    
Events      
T = Trace of Precipitation, MM = Missing Value Source: Averaged Metar Reports

Daily Weather History Graph

Daily Weather History Graph

Search for Another Location

Airport or City:

Trip Planner

Search our weather history database for the weather conditions in past years. The results will help you decide how hot, cold, wet, or windy it might be!

Date:

Astronomy

Nov. 12, 2011 Rise Set
Actual Time 6:58 AM EST 5:34 PM EST
Civil Twilight 6:32 AM EST 6:00 PM EST
Nautical Twilight 6:03 AM EST 6:29 PM EST
Astronomical Twilight 5:34 AM EST 6:58 PM EST
Moon 6:55 PM EST (11/12) 8:33 AM EST (11/12)
Length of Visible Light 11h 27m
Length of Day
10h 35m
Full, 97% of the Moon is Illuminated
Nov 12
Full
Nov 18
Last Quarter
Nov 25
New
Dec 2
First Quarter
Dec 10
Full

Hourly Weather History & Observations

Time (EST) Temp. Dew Point Humidity Pressure Visibility Wind Dir Wind Speed Gust Speed Precip Events Conditions
12:15 AM 30.2 °F 28.4 °F 93% 30.27 in 10.0 mi Calm Calm - N/A   Clear
12:35 AM 30.2 °F 28.4 °F 93% 30.27 in 10.0 mi Calm Calm - N/A   Clear
12:55 AM 28.4 °F 26.6 °F 93% 30.27 in 10.0 mi Calm Calm - N/A   Clear
1:15 AM 28.4 °F 26.6 °F 93% 30.27 in 10.0 mi Calm Calm - N/A   Clear
1:35 AM 28.4 °F 26.6 °F 93% 30.27 in 10.0 mi Calm Calm - N/A   Clear
1:55 AM 28.4 °F 26.6 °F 93% 30.27 in 10.0 mi Calm Calm - N/A   Clear
2:15 AM 28.4 °F 26.6 °F 93% 30.27 in 10.0 mi Calm Calm - N/A   Clear
2:35 AM 26.6 °F 26.6 °F 100% 30.27 in 10.0 mi Calm Calm - N/A   Clear
2:55 AM 26.6 °F 26.6 °F 100% 30.27 in 10.0 mi Calm Calm - N/A   Clear
3:15 AM 28.4 °F 26.6 °F 93% 30.28 in 10.0 mi Calm Calm - N/A   Clear
3:35 AM 28.4 °F 26.6 °F 93% 30.29 in 10.0 mi Calm Calm - N/A   Clear
3:55 AM 28.4 °F 26.6 °F 93% 30.29 in 10.0 mi Calm Calm - N/A   Clear
4:55 AM 26.6 °F 24.8 °F 93% 30.30 in 10.0 mi Calm Calm - N/A   Clear
5:15 AM 26.6 °F 24.8 °F 93% 30.30 in 10.0 mi Calm Calm - N/A   Clear
5:35 AM 26.6 °F 24.8 °F 93% 30.31 in 10.0 mi Calm Calm - N/A   Clear
5:55 AM 26.6 °F 24.8 °F 93% 30.32 in 10.0 mi Calm Calm - N/A   Clear
6:15 AM 24.8 °F 24.8 °F 100% 30.32 in 10.0 mi Calm Calm - N/A   Clear
6:35 AM 24.8 °F 24.8 °F 100% 30.33 in 10.0 mi Calm Calm - N/A   Clear
6:55 AM 24.8 °F 23.0 °F 93% 30.34 in 10.0 mi Calm Calm - N/A   Clear
7:15 AM 24.8 °F 24.8 °F 100% 30.35 in 10.0 mi Calm Calm - N/A   Clear
7:35 AM 28.4 °F 24.8 °F 86% 30.35 in 10.0 mi Calm Calm - N/A   Clear
7:55 AM 30.2 °F 28.4 °F 93% 30.36 in 10.0 mi Calm Calm - N/A   Clear
8:15 AM 32.0 °F 30.2 °F 93% 30.36 in 10.0 mi Calm Calm - N/A   Clear
8:35 AM 35.6 °F 32.0 °F 87% 30.37 in 10.0 mi Calm Calm - N/A   Clear
8:55 AM 39.2 °F 30.2 °F 70% 30.37 in 10.0 mi Calm Calm - N/A   Clear
9:15 AM 44.6 °F 30.2 °F 57% 30.38 in 10.0 mi Calm Calm - N/A   Clear
9:35 AM 50.0 °F 28.4 °F 43% 30.38 in 10.0 mi Calm Calm - N/A   Clear
10:15 AM 57.2 °F 26.6 °F 31% 30.38 in 10.0 mi Calm Calm - N/A   Clear
10:35 AM 59.0 °F 24.8 °F 27% 30.38 in 10.0 mi East 3.5 mph - N/A   Clear
10:55 AM 60.8 °F 19.4 °F 20% 30.38 in 10.0 mi Calm Calm - N/A   Clear
11:15 AM 60.8 °F 21.2 °F 22% 30.37 in 10.0 mi South 3.5 mph - N/A   Clear
11:35 AM 62.6 °F 17.6 °F 18% 30.37 in 10.0 mi SE 4.6 mph - N/A   Clear
11:55 AM 62.6 °F 17.6 °F 18% 30.36 in 10.0 mi Calm Calm - N/A   Clear
12:15 PM 64.4 °F 17.6 °F 16% 30.35 in 10.0 mi Calm Calm - N/A   Clear
12:35 PM 64.4 °F 17.6 °F 16% 30.33 in 10.0 mi Calm Calm - N/A   Clear
12:55 PM 66.2 °F 17.6 °F 15% 30.33 in 10.0 mi Calm Calm - N/A   Clear
1:15 PM 66.2 °F 17.6 °F 15% 30.32 in 10.0 mi SE 5.8 mph - N/A   Clear
1:35 PM 66.2 °F 15.8 °F 14% 30.30 in 10.0 mi Calm Calm - N/A   Clear
1:55 PM 68.0 °F 15.8 °F 13% 30.30 in 10.0 mi SSW 4.6 mph - N/A   Clear
2:15 PM 68.0 °F 15.8 °F 13% 30.30 in 10.0 mi Calm Calm - N/A   Clear
2:55 PM 68.0 °F 15.8 °F 13% 30.28 in 10.0 mi Calm Calm - N/A   Clear
3:35 PM 68.0 °F 15.8 °F 13% 30.28 in 10.0 mi Calm Calm - N/A   Clear
4:15 PM 68.0 °F 15.8 °F 13% 30.28 in 10.0 mi South 3.5 mph - N/A   Clear
4:55 PM 64.4 °F 19.4 °F 18% 30.29 in 10.0 mi Calm Calm - N/A   Clear
5:35 PM 60.8 °F 23.0 °F 23% 30.28 in 10.0 mi Calm Calm - N/A   Clear
5:55 PM 59.0 °F 24.8 °F 27% 30.29 in 10.0 mi Calm Calm - N/A   Clear
6:15 PM 55.4 °F 26.6 °F 33% 30.28 in 10.0 mi Calm Calm - N/A   Clear
6:35 PM 53.6 °F 26.6 °F 35% 30.29 in 10.0 mi Calm Calm - N/A   Clear
6:55 PM 48.2 °F 32.0 °F 54% 30.30 in 10.0 mi Calm Calm - N/A   Clear
7:15 PM 48.2 °F 33.8 °F 58% 30.29 in 10.0 mi Calm Calm - N/A   Clear
7:35 PM 46.4 °F 32.0 °F 57% 30.30 in 10.0 mi Calm Calm - N/A   Clear
8:15 PM 46.4 °F 32.0 °F 57% 30.29 in 10.0 mi Calm Calm - N/A   Clear
8:35 PM 42.8 °F 32.0 °F 66% 30.29 in 10.0 mi Calm Calm - N/A   Clear
8:55 PM 42.8 °F 32.0 °F 66% 30.30 in 10.0 mi Calm Calm - N/A   Clear
9:15 PM 42.8 °F 33.8 °F 70% 30.30 in 10.0 mi Calm Calm - N/A   Clear
9:35 PM 42.8 °F 33.8 °F 70% 30.30 in 10.0 mi Calm Calm - N/A   Clear
9:55 PM 41.0 °F 33.8 °F 76% 30.30 in 10.0 mi Calm Calm - N/A   Clear
10:15 PM 41.0 °F 33.8 °F 76% 30.31 in 10.0 mi Calm Calm - N/A   Clear
10:35 PM 39.2 °F 33.8 °F 81% 30.31 in 10.0 mi Calm Calm - N/A   Clear
10:55 PM 41.0 °F 33.8 °F 76% 30.30 in 10.0 mi Calm Calm - N/A   Clear
11:15 PM 39.2 °F 33.8 °F 81% 30.30 in 10.0 mi Calm Calm - N/A   Clear
11:35 PM 39.2 °F 33.8 °F 81% 30.28 in 10.0 mi Calm Calm - N/A   Clear
11:55 PM 39.2 °F 33.8 °F 81% 30.28 in 10.0 mi Calm Calm - N/A   Clear